Regional Weather Roundup
Issued by NWS

Home | Current Version | Previous Version | Graphics & Text | Print | Product List | Glossary On
Versions: 1 2 3 4 5 6 7 8 9 10 11 12 13 14 15 16 17 18 19 20 21 22 23 24 25 26 27 28 29 30 31 32 33 34 35 36 37 38 39 40 41 42 43 44 45 46 47 48 49 50
000
ASUS45 KABQ 281601
RWRNM
NEW MEXICO REGIONAL WEATHER ROUNDUP
NATIONAL WEATHER SERVICE ALBUQUERQUE NM
1000 AM MDT FRI JUL 28 2017

NOTE: "FAIR" MEANS FEW OR NO CLOUDS BELOW 12,000 FEET AGL WITH NO
       SIGNIFICANT WEATHER OR OBSTRUCTIONS TO VISION.

      THIS PRODUCT IS RELEASED AS TWO VERSIONS.  ONE VERSION NEAR
      THE TOP OF THE HOUR CONTAINING PRELIMINARY DATA FROM ALBUQUERQUE
      AND OTHER STATIONS.  A FINAL VERSION WITH ADDITIONAL DATA IS
      ISSUED ABOUT 10 MINUTES AFTER THE HOUR.

NMZ501-503-504-510>518-281700-
NORTHWEST PLATEAU/NORTHCENTRAL MOUNTAINS

CITY           SKY/WX    TMP DP  RH WIND       PRES   REMARKS
FARMINGTON     FAIR      73  59  61 CALM      30.22S
LOS ALAMOS     CLOUDY    62  58  87 CALM      30.34S
SANTA FE       FAIR      68  62  81 CALM      30.27F
TAOS           CLOUDY    64  52  63 CALM      30.33S
ANGEL FIRE     CLOUDY    56  53  86 CALM      30.44S

$$
NMZ402-403-502-505>509-281700-
WESTCENTRAL MOUNTAINS/SOUTHWEST MOUNTAINS

CITY           SKY/WX    TMP DP  RH WIND       PRES   REMARKS
GALLUP         CLOUDY    68  56  65 W5        30.29F
GRANTS         FAIR      70  58  64 CALM      30.31S
SILVER CITY    FAIR      75  58  55 S3        30.22S

$$
NMZ407-409-411-412-281700-
SOUTHERN DESERTS

CITY           SKY/WX    TMP DP  RH WIND       PRES   REMARKS
DEMING         FAIR      78  61  55 CALM      30.14F
LAS CRUCES     FAIR      79  63  57 E5        30.15S
ALAMOGORDO     FAIR      77  63  61 S7        30.13S
T OR C         FAIR      77  62  59 NE8       30.18R

$$
NMZ519>523-281700-
CENTRAL VALLEYS/CENTRAL HIGHLANDS

CITY           SKY/WX    TMP DP  RH WIND       PRES   REMARKS
ALBUQUERQUE    PTSUNNY   70  61  73 CALM      30.23S
DOUBLE EAGLE   PTSUNNY   72  57  60 CALM      30.26S
CLINES CORNERS FAIR      70  54  56 E6        30.32S
BELEN          NOT AVBL
SOCORRO        FAIR      75  61  62 N9        30.20S

$$
NMZ524>526-539-540-281700-
SOUTHCENTRAL MOUNTAINS

CITY           SKY/WX    TMP DP  RH WIND       PRES   REMARKS
RUIDOSO        FAIR      72  55  56 SE7       30.33R

$$
NMZ527>531-281700-
NORTHEAST HIGHLANDS/NORTHEAST PLAINS

CITY           SKY/WX    TMP DP  RH WIND       PRES   REMARKS
LAS VEGAS      FAIR      67  56  67 S6        30.31S
RATON          FAIR      69  56  62 E3        30.26F
CLAYTON        PTSUNNY   72  68  87 SE13      30.19S

$$
NMZ532>537-281700-
EASTCENTRAL PLAINS

CITY           SKY/WX    TMP DP  RH WIND       PRES   REMARKS
SANTA ROSA     FAIR      78  60  53 CALM      30.16F
TUCUMCARI      FAIR      83  67  58 VRB7      30.11S
CANNON AFB     FAIR      83  56  40 S9        30.15F
CLOVIS AIRPORT FAIR      84  58  40 VRB5      30.15S

$$
NMZ028-029-538-281700-
SOUTHEAST PLAINS

CITY           SKY/WX    TMP DP  RH WIND       PRES   REMARKS
ROSWELL        FAIR      83  59  44 W3        30.09F
ARTESIA        FAIR      82  61  47 CALM      30.09S
CARLSBAD       FAIR      82  61  48 NE5       30.05F
HOBBS          SUNNY     84  57  39 SE7       30.10F


$$




USA.gov is the U.S. government's official web portal to all federal, state and local government web resources and services.